Skip Page Navigation
NASA JPL Caltech
NASA Logo - Jet Propulsion Laboratory + View the NASA Portal
+ Near-Earth Object (NEO) Program
Search JPL
JPL Home Earth Solar System Stars & Galaxies Technology
JPL Solar System Dynamics
BODIES ORBITS EPHEMERIDES TOOLS PHYSICAL DATA DISCOVERY FAQ SITE MAP
JPL Small-Body Database Browser
Search: [ help ]  
(2008 DC17)
Classification: Main-belt Asteroid          SPK-ID: 3404743
Ephemeris | Orbit Diagram | Orbital Elements | Physical Parameters ]

[ hide orbit diagram ]
Orbit Diagram
Note: Make sure you have Java enabled on your browser to see the applet. This applet is provided as a 3D orbit visualization tool. The applet was implemented using 2-body methods, and hence should not be used for determining accurate long-term trajectories (over several years or decades) or planetary encounter circumstances. For accurate long-term ephemerides, please instead use our Horizons system.
Orbit Viewer

Additional Notes: the orbits shown in the applet are color coded. The planets are white lines, and the asteroid/comet is a blue line. The bright white line indicates the portion of the orbit that is above the ecliptic plane, and the darker portion is below the ecliptic plane. Likewise for the asteroid/comet orbit, the light blue indicates the portion above the ecliptic plane, and the dark blue the portion below the ecliptic plane.

Orbit Viewer applet originally written and kindly provided by Osamu Ajiki (AstroArts), and further modified by Ron Baalke (JPL).


Orbital Elements at Epoch 2454520.5 (2008-Feb-24.0) TDB
Reference: MPO138153 (heliocentric ecliptic J2000)
 Element Value Uncertainty (1-sigma)   Units 
e 0.1566873 n/a  
a 2.7664168 n/a AU
q 2.3329544 n/a AU
i 7.96992 n/a deg
node 177.23845 n/a deg
peri 335.45092 n/a deg
M 15.45626 n/a deg
tp 2454448.3432844
(2007-Dec-13.84328440)
n/a JED
period 1680.6405706
4.60
n/a
n/a
d
yr
n 0.21420404 n/a deg/d
Q 3.1998792 n/a AU
  Orbit Determination Parameters
   # obs. used (total)      39  
   data-arc span      31 days  
   first obs. used      2008-02-27  
   last obs. used      2008-03-29  
   # oppositions      1  
   two-body model      T  
   fit RMS      0.47  
   data source      MPC:mp1  
   producer      MPCW  

Additional Information
 T_jup = 3.307 
 1-opposition object seen prior 

Ephemeris | Orbit Diagram | Orbital Elements | Physical Parameters ]

Physical Parameter Table
Parameter Symbol Value Units Sigma Reference Notes
absolute magnitude H 18.0 mag n/a MPO138153  
Ephemeris | Orbit Diagram | Orbital Elements | Physical Parameters ]
ABOUT SSD CREDITS/AWARDS PRIVACY/COPYRIGHT GLOSSARY LINKS
FirstGov 2013-May-25 17:46 UT
(server date/time)  
NASA Home Page
Site Manager:   Donald K. Yeomans
Webmaster  Alan B. Chamberlin